Wind_Speed
4 6 5 3 5 5 4 5 6 6 5 5 5 6 6 6 6 8 6 5 6 9 12 13 12 10 7 7 2 3 3 3 3 5 6 7 7 5 4 3 5 7 8 7 7 7 6 5 4 4 4 4 5 5 5 5 5 5 5 6 5 4 4 4 3 3 2 2 1 1 1 1 0 1 2 2 2 3 2 3 3 3 3 4 4
5 5 4 3 5 5 4 6 5 5 5 5 6 6 6 6 5 6 6 4 5 7 10 12 12 9 8 7 5 3 2 2 3 3 4 5 5 4 4 2 2 5 7 7 7 6 6 6 5 4 4 4 4 4 4 4 4 4 4 5 4 4 3 3 3 2 2 2 1 1 0 0 0 0 1 1 1 2 2 2 3 3 4 4 4
7 5 5 4 4 5 4 5 5 4 4 4 6 6 5 6 4 3 5 5 5 6 8 11 12 9 8 7 6 9 5 2 3 3 3 4 6 4 5 4 1 2 5 6 6 6 6 6 6 5 5 4 4 4 4 4 3 3 3 3 4 4 3 3 3 2 2 2 2 1 1 1 1 1 1 1 2 2 3 3 4 4 4 4 5
9 7 6 5 5 5 3 3 4 3 3 3 4 4 4 5 4 4 5 5 5 6 8 11 12 11 10 9 5 9 8 5 4 3 3 5 7 6 4 4 3 2 3 4 5 6 5 5 5 6 5 5 5 5 5 4 4 4 3 3 3 3 3 3 2 2 3 2 2 2 2 2 2 2 2 2 3 3 4 4 5 5 5 5 5
11 9 7 6 6 5 3 2 1 2 3 3 3 4 5 5 4 4 4 3 5 6 8 9 12 13 11 9 7 7 8 6 6 4 4 5 7 6 4 4 3 2 3 4 5 6 5 5 5 5 6 5 6 5 5 5 4 4 3 3 3 4 3 3 3 3 4 3 3 3 3 3 3 3 3 4 4 5 5 5 5 6 6 6 6
11 10 9 7 7 5 4 2 2 1 2 3 3 4 5 5 4 4 4 4 5 7 8 8 13 14 11 8 10 9 6 4 7 6 5 5 6 6 4 4 3 2 2 3 4 5 5 5 5 5 5 5 5 5 5 4 4 4 3 4 4 4 4 4 4 5 5 5 5 4 5 5 5 5 5 5 6 6 6 7 7 7 7 7 7
10 9 9 8 8 6 4 4 3 2 1 1 2 3 3 4 4 3 4 4 5 7 8 8 10 13 11 10 10 7 4 7 9 7 5 5 4 5 4 5 4 2 2 2 3 3 4 4 5 5 5 4 4 4 4 4 4 5 4 5 5 5 5 6 6 6 6 6 6 6 6 7 7 7 6 7 7 8 8 8 9 9 9 9 9
12 9 9 8 8 7 7 5 4 3 3 2 1 2 2 3 3 3 3 2 4 6 7 7 10 13 12 10 9 6 6 10 9 6 6 6 5 6 6 6 5 4 4 3 3 3 3 4 4 5 5 4 5 5 5 4 4 5 5 5 6 6 6 7 7 7 6 6 6 7 7 7 8 8 8 8 8 8 9 9 9 9 9 10 10
12 11 9 8 8 8 7 6 4 3 4 3 2 2 2 3 3 3 4 3 4 6 6 8 12 15 12 9 9 7 7 8 7 5 4 4 6 9 9 8 7 6 6 4 4 4 3 3 4 5 5 4 5 5 5 5 5 4 5 5 6 6 6 7 7 7 7 7 7 8 8 8 8 8 9 9 9 9 9 9 9 9 9 10 10
12 11 10 9 9 8 6 6 5 4 4 4 3 3 2 3 2 3 4 3 4 6 6 9 14 15 10 7 7 8 8 6 5 4 2 1 4 8 9 8 8 8 7 6 5 3 3 4 4 5 4 4 4 5 5 4 4 4 4 4 4 5 5 6 6 6 7 8 8 9 9 9 10 10 10 10 10 10 10 9 9 9 10 10 10
13 12 12 11 11 9 7 6 5 4 4 4 4 4 3 2 2 2 3 3 3 5 6 8 12 11 7 6 7 9 10 6 5 3 1 2 3 5 6 6 7 7 8 7 6 3 2 4 5 5 4 4 3 3 3 3 3 3 3 3 3 3 4 4 4 5 6 6 7 8 8 9 9 10 10 10 9 9 9 9 9 9 9 10 10
13 13 12 12 12 10 8 7 5 4 3 3 4 4 3 2 2 2 3 4 4 7 9 10 9 6 6 8 9 10 11 10 7 2 2 3 4 4 4 4 5 6 6 6 6 4 1 2 4 5 5 5 4 3 3 2 2 2 3 3 3 3 3 3 3 4 4 5 6 6 6 6 6 7 6 6 6 6 6 6 6 7 7 7 8
13 13 13 13 13 11 9 8 6 4 3 4 4 4 4 3 3 2 3 4 6 10 12 10 8 7 8 9 10 9 10 12 9 5 5 5 3 4 4 3 4 4 4 5 6 5 1 2 3 4 5 5 5 4 3 3 3 3 4 4 3 3 3 3 2 2 3 3 4 4 4 3 3 3 3 3 4 4 4 4 4 5 5 5 5
13 12 13 13 14 13 11 8 6 5 5 4 4 5 5 4 4 4 5 6 7 10 11 10 9 10 9 9 9 9 11 14 11 9 8 6 6 6 4 4 4 4 3 4 6 6 4 3 2 2 4 4 4 4 4 3 3 2 3 3 3 3 3 3 2 2 2 1 1 1 1 2 2 3 3 3 4 4 4 4 4 4 4 4 4
14 13 12 13 14 13 11 8 7 6 5 4 4 6 6 5 5 5 6 7 8 10 11 11 11 11 10 8 9 10 13 14 13 12 10 7 10 10 7 5 3 3 3 2 4 5 5 4 2 2 3 3 2 3 4 3 3 2 1 2 2 3 3 3 2 2 2 1 1 1 1 2 3 3 4 4 4 4 5 5 5 5 5 5 5
14 14 13 13 14 14 12 9 8 6 5 5 5 6 6 6 6 5 6 7 8 9 11 11 11 12 12 9 8 9 11 14 14 12 12 9 11 13 11 8 4 4 4 1 2 3 4 4 3 3 2 2 2 2 4 4 2 1 1 2 2 2 2 2 3 3 3 3 3 3 3 3 4 4 4 5 5 5 6 6 6 6 6 6 6
15 15 14 13 14 14 13 11 10 7 5 6 6 6 6 6 6 6 7 7 7 9 11 11 8 10 13 10 9 9 8 12 13 10 10 12 13 14 12 8 6 8 7 4 0 2 4 4 3 3 3 2 2 2 3 3 2 3 3 3 3 3 3 3 3 3 4 4 4 4 4 4 4 5 5 5 6 6 6 6 6 6 6 6 6
15 15 14 14 14 14 13 12 11 9 7 7 7 6 6 6 7 7 8 7 8 10 12 11 7 8 13 11 8 8 7 11 13 10 8 11 15 17 12 7 6 7 8 7 4 4 4 4 3 3 5 4 2 4 3 3 4 5 5 5 5 5 5 4 4 4 4 4 4 4 4 5 5 5 5 5 5 5 5 5 5 6 6 6 6
15 16 15 15 14 14 14 12 11 10 8 8 7 6 6 6 7 8 8 8 9 11 12 11 9 9 13 11 9 8 8 10 12 10 9 12 17 18 11 8 8 7 8 10 8 6 5 5 4 5 6 5 3 3 4 3 4 5 5 6 6 6 6 5 5 4 4 4 4 4 4 5 5 5 5 5 5 5 5 5 5 5 5 5 5
15 16 16 16 15 15 15 13 11 10 9 9 8 7 7 8 8 9 9 9 9 10 11 11 8 8 11 13 12 10 8 9 9 9 12 17 18 16 12 9 8 6 6 8 7 7 8 8 5 7 7 5 4 2 4 4 4 4 4 4 5 5 5 5 4 4 3 4 4 4 4 4 4 4 5 5 5 5 5 5 5 5 5 5 5
15 17 17 16 16 15 15 15 13 11 10 9 9 8 9 9 10 10 9 9 9 11 12 11 8 6 9 15 16 12 10 11 9 8 12 16 16 14 14 12 9 6 5 6 7 8 11 9 5 6 6 6 5 2 2 3 4 4 3 3 3 4 4 3 3 2 3 3 3 4 4 4 4 4 4 4 4 5 5 5 5 6 6 6 6
17 17 17 17 16 16 16 16 14 12 11 10 10 10 9 10 10 10 9 9 10 11 12 11 10 7 6 13 19 16 13 13 11 8 11 15 15 13 14 14 11 7 6 6 8 11 13 10 5 6 7 6 6 4 5 3 1 3 2 2 2 2 2 2 1 1 1 1 2 3 4 4 4 4 4 4 4 5 5 5 6 6 7 7 7
18 17 18 18 17 16 16 16 15 14 13 12 12 11 10 11 11 11 10 10 10 11 12 12 12 9 6 12 19 17 15 15 12 10 12 15 16 13 12 13 12 9 8 8 8 11 14 12 8 8 7 7 7 7 8 7 2 2 2 3 2 2 1 1 1 1 2 2 2 3 3 4 4 4 4 4 5 6 6 7 7 8 8 9 9
21 19 18 18 18 17 17 18 17 16 14 13 13 12 11 11 11 11 11 11 10 10 11 12 13 12 9 13 18 16 16 17 13 11 13 14 14 14 11 11 13 11 10 10 9 10 13 12 10 9 8 8 9 9 9 8 5 4 5 4 3 1 2 3 3 4 4 4 4 4 4 3 3 4 5 5 6 7 8 9 9 10 10 10 11
24 21 20 19 19 18 17 18 18 17 16 14 14 13 13 12 12 12 12 11 11 10 10 11 13 15 12 12 16 15 16 20 15 12 14 13 12 14 10 9 12 12 12 12 11 11 13 12 12 11 9 9 10 10 11 10 8 8 6 4 3 3 4 5 6 6 7 7 6 5 5 4 4 5 5 6 7 8 9 9 10 11 11 11 11
25 23 21 19 19 18 17 18 18 17 16 16 15 14 14 14 13 13 12 11 11 10 9 10 12 16 16 13 13 13 14 19 18 15 16 13 11 13 12 10 10 10 12 13 13 14 14 14 15 14 11 11 11 11 11 11 11 11 8 7 6 5 5 6 7 8 8 8 8 7 6 6 6 6 6 7 8 9 10 10 11 12 12 12 12
26 24 23 21 19 18 18 18 18 18 17 17 16 16 15 15 14 14 13 12 12 12 10 9 9 13 18 16 13 12 12 16 17 17 16 14 12 12 14 14 11 10 13 15 15 15 13 13 15 15 13 14 13 12 12 12 12 12 12 11 9 8 8 8 9 10 9 9 8 8 8 7 7 7 7 8 9 9 10 11 12 12 13 13 13
28 26 25 22 20 18 18 18 19 19 19 18 18 17 16 16 15 15 15 13 13 13 11 9 8 10 16 18 14 13 14 15 14 14 14 15 13 12 15 17 15 13 14 16 17 16 13 12 15 15 15 17 16 14 14 13 13 13 13 13 12 11 10 10 11 10 10 10 9 9 8 8 8 8 9 9 9 10 10 11 12 12 13 13 14
29 28 27 24 21 19 18 17 17 18 19 20 19 18 18 17 17 16 16 14 14 14 12 11 10 9 14 19 16 14 16 16 14 13 13 15 15 14 15 17 18 17 16 17 18 16 13 13 16 17 16 17 19 17 16 15 14 14 14 14 14 13 13 13 12 11 11 11 9 9 9 9 9 9 9 10 10 10 11 11 12 13 13 14 15
29 28 27 26 24 22 20 19 18 17 18 19 19 19 19 19 19 18 16 15 15 15 14 13 13 11 12 17 19 17 17 17 17 16 15 16 17 17 15 14 17 20 18 17 17 15 13 12 15 18 16 16 18 19 18 18 16 16 16 15 15 14 14 14 13 12 12 11 10 10 9 9 9 9 10 10 10 11 11 12 13 14 14 15 16
29 28 27 26 25 24 23 22 20 19 18 18 19 19 19 20 20 20 19 18 18 18 16 16 15 15 14 16 19 20 19 19 20 20 18 19 20 20 19 16 16 19 19 20 18 16 14 12 13 16 16 15 17 19 20 19 18 18 17 16 16 15 15 15 13 13 12 11 11 11 11 10 10 10 10 10 11 11 12 13 14 15 15 16 16
30 28 27 26 25 25 24 24 23 22 21 20 19 19 20 20 21 21 21 21 21 20 19 18 18 18 18 17 18 20 21 21 22 23 22 22 22 22 22 21 19 18 19 21 22 18 15 14 13 15 15 15 16 18 19 19 19 19 18 15 14 15 15 15 13 13 12 12 12 12 12 11 10 10 10 10 11 12 12 14 15 16 16 16 17
31 30 28 27 26 25 25 25 24 24 23 22 22 21 21 21 21 21 21 22 23 22 21 21 21 21 21 20 19 19 23 24 24 24 24 25 24 24 24 24 22 20 19 22 23 21 18 16 16 17 17 16 16 17 17 19 20 20 18 15 14 15 15 15 14 14 13 13 12 12 12 11 11 11 11 11 12 12 13 14 15 16 16 17 17
32 31 30 29 28 27 27 26 26 25 25 24 24 23 23 23 23 23 22 22 23 23 23 23 23 23 23 22 21 20 22 26 26 26 26 26 27 26 25 24 23 22 21 21 22 22 20 19 19 20 19 18 18 18 19 20 19 18 17 17 17 17 16 16 16 15 15 14 14 13 12 12 12 12 12 12 13 13 14 15 15 15 16 17 17
34 33 32 31 30 29 29 28 28 27 26 26 25 25 25 25 26 26 25 25 24 24 24 25 24 24 25 24 23 22 22 25 27 29 28 28 28 28 27 26 24 23 22 22 23 23 21 20 20 22 21 20 20 20 20 19 18 17 17 18 19 18 18 17 17 16 16 16 15 14 13 13 12 12 12 13 13 14 14 14 15 15 15 16 17
35 34 33 32 31 31 31 31 30 30 29 28 27 27 27 27 27 27 27 27 27 26 26 26 26 26 26 26 25 24 24 25 27 29 30 30 30 29 29 28 27 26 24 24 24 23 22 21 22 23 23 23 22 21 20 19 19 19 20 20 20 19 18 17 17 16 16 15 15 14 14 13 12 12 12 13 13 14 14 14 14 14 14 14 15
36 35 34 33 32 32 33 33 32 32 32 31 30 29 29 29 29 28 28 28 28 28 27 27 27 27 28 27 26 25 25 26 27 28 30 31 31 31 30 29 28 27 26 25 25 24 25 24 22 23 24 25 26 25 23 23 22 22 22 22 21 20 18 17 17 16 15 14 14 14 14 13 13 13 13 14 14 14 14 14 14 13 12 12 13
37 36 35 35 34 34 34 34 34 33 33 33 32 32 31 31 31 31 30 30 30 29 29 28 28 29 29 29 28 27 27 27 27 27 28 29 30 31 31 30 29 28 28 27 26 25 26 26 24 23 24 26 27 27 26 26 25 24 23 22 21 21 20 19 17 16 16 16 16 15 15 15 15 15 15 15 14 14 14 14 14 14 13 13 15
38 37 37 36 36 35 35 35 35 35 35 35 35 34 33 33 33 33 33 33 32 32 31 31 30 30 30 30 30 29 29 29 28 28 27 28 29 31 31 31 30 30 29 28 28 27 27 27 26 25 25 25 26 27 26 24 24 24 23 23 23 22 21 20 18 17 18 18 18 17 17 17 17 17 16 16 15 14 14 14 14 14 14 15 15
39 39 39 38 38 37 37 36 36 36 37 37 37 36 36 35 34 35 35 35 35 34 34 34 33 32 32 32 32 32 31 31 30 30 29 28 28 29 30 31 31 31 31 30 30 30 29 29 29 28 26 26 27 27 26 25 26 26 25 25 24 23 22 21 20 20 20 20 19 19 18 18 18 17 17 17 16 15 15 14 14 15 15 14 14
40 40 40 40 39 39 39 38 38 38 39 39 39 38 38 37 36 36 36 36 36 36 36 36 35 35 35 35 35 35 34 34 32 31 31 29 29 29 29 30 32 32 32 32 32 32 32 32 32 31 29 29 29 29 29 30 29 28 26 25 24 23 21 22 22 22 21 21 21 21 20 19 18 18 18 17 16 16 15 15 16 16 15 14 13
41 40 40 40 41 41 40 40 39 39 40 40 40 40 39 38 37 37 37 37 37 37 38 37 37 37 37 37 37 37 36 35 34 33 33 32 31 30 30 30 32 33 33 34 34 34 34 34 34 33 33 34 32 31 31 32 30 29 26 25 25 23 21 22 24 24 23 22 23 23 21 20 18 18 18 17 16 16 16 17 17 16 15 13 13
41 41 40 40 41 41 41 41 40 41 41 41 41 41 40 39 38 38 39 39 38 38 39 39 39 39 38 39 39 39 38 37 37 36 35 34 33 32 31 31 32 34 35 35 35 35 35 36 35 35 36 37 35 33 32 31 30 29 28 26 25 24 24 25 25 25 24 22 23 23 22 20 18 17 17 17 16 16 17 18 17 14 13 12 12
42 41 41 41 41 41 41 41 41 41 41 40 40 40 40 40 39 39 39 40 40 40 39 39 39 39 39 40 40 40 40 40 39 38 37 36 34 33 32 32 33 34 36 36 36 36 36 37 37 37 37 37 37 35 33 31 30 29 28 27 26 26 26 27 27 26 22 20 21 23 22 20 18 17 17 17 17 18 19 17 14 12 12 12 13
43 42 42 41 41 41 41 41 41 41 40 40 39 39 38 38 38 38 39 40 41 41 40 40 39 40 40 41 41 41 41 41 41 40 39 37 36 34 33 33 33 35 36 37 37 37 37 38 38 38 38 37 37 37 34 30 29 29 29 29 28 28 27 28 27 25 21 20 22 23 23 21 19 19 19 19 18 18 17 14 12 13 13 13 13
44 44 43 42 42 42 42 42 41 41 41 40 39 38 38 37 37 37 38 39 41 42 42 41 41 40 40 40 41 42 41 42 42 42 41 39 37 36 35 35 36 36 37 37 38 39 39 40 41 40 38 37 37 36 33 30 29 30 31 30 29 29 29 27 25 23 22 23 23 24 24 22 20 20 21 19 18 17 15 13 13 15 15 14 14
45 45 44 44 43 43 43 43 43 43 43 41 40 40 39 37 36 36 37 39 41 42 42 43 43 42 42 41 42 42 42 42 43 42 42 41 40 39 39 39 39 39 39 40 40 40 41 41 42 41 39 38 38 37 34 31 30 30 31 30 28 27 28 27 26 26 26 26 25 25 25 23 20 21 21 17 16 16 14 15 16 16 16 15 15
45 45 45 45 45 44 44 43 44 45 45 44 43 42 41 40 38 37 37 39 40 42 42 43 44 44 44 43 43 43 43 43 42 42 42 42 42 42 43 43 43 42 43 43 42 42 42 41 42 42 41 40 39 38 36 34 32 30 29 29 29 29 30 30 30 30 29 29 29 28 26 23 21 21 20 17 17 17 16 17 17 17 17 17 16
46 46 46 46 45 45 45 45 45 46 46 46 45 44 43 41 40 39 39 39 40 41 42 43 43 45 46 46 46 46 46 45 44 43 43 43 44 45 46 46 46 46 47 46 44 44 44 44 43 43 43 42 40 39 38 36 34 31 31 33 34 34 34 34 34 33 32 33 32 28 26 24 22 21 21 19 18 18 18 18 18 17 17 17 15
46 46 46 46 46 47 47 47 47 47 47 46 46 45 43 40 39 39 40 40 40 41 42 42 42 44 45 46 47 47 48 47 46 44 44 44 45 47 48 48 48 50 51 48 46 46 47 47 46 46 46 45 43 42 41 40 37 35 36 38 38 37 38 38 37 35 34 34 33 28 26 25 23 22 23 22 21 21 20 19 18 16 16 15 14
45 45 45 46 46 47 47 48 47 48 47 46 45 45 43 40 37 35 36 39 42 42 42 41 42 43 44 46 47 48 48 48 46 46 45 45 47 48 48 49 51 53 52 49 48 49 49 49 49 49 49 48 47 46 45 43 41 40 40 40 40 41 41 41 39 37 36 36 34 30 28 26 24 24 26 25 23 22 21 19 18 17 15 15 14
Wind_Direction
132 112 116 125 116 125 116 106 104 96 90 84 91 95 89 89 90 89 87 87 100 130 133 126 130 121 130 173 170 90 99 75 66 65 76 74 60 71 89 127 155 158 158 157 156 150 150 152 149 150 146 141 139 136 137 136 134 135 135 133 136 142 146 150 154 156 151 141 134 108 75 41 44 55 57 56 46 35 26 16 1 355 351 346 345
158 133 139 145 132 151 134 112 105 95 92 83 87 86 86 88 81 88 96 92 94 126 138 130 132 123 126 165 219 226 153 122 103 79 86 69 44 66 91 103 167 168 162 161 166 162 162 166 164 168 165 157 156 153 154 149 144 147 151 150 149 154 158 164 167 181 189 179 191 188 163 317 276 253 345 7 2 355 346 346 335 333 336 337 336
167 168 184 183 160 172 147 114 105 94 87 79 88 89 83 78 75 77 84 94 98 119 136 134 136 133 131 143 205 220 210 177 135 100 100 68 43 56 85 93 117 170 165 166 174 173 174 177 175 177 177 176 177 173 172 168 163 169 172 170 170 169 172 177 175 188 202 196 204 225 219 241 256 234 264 293 302 306 305 307 306 308 314 317 317
177 185 195 185 161 165 153 112 107 104 81 73 92 99 85 68 71 87 94 96 90 114 132 137 141 133 129 128 154 209 213 210 191 156 112 79 54 51 71 94 105 135 164 169 178 182 183 186 185 186 186 187 191 189 187 186 187 190 187 188 192 194 198 196 197 208 214 212 215 225 237 246 257 250 257 271 275 279 286 295 299 301 302 304 307
183 183 188 172 151 155 157 156 133 115 89 81 90 94 88 79 76 84 101 88 76 115 130 135 145 137 134 129 111 158 189 206 207 177 114 88 57 45 63 90 97 117 159 169 175 182 187 192 195 196 198 198 197 196 198 200 201 205 206 211 212 215 222 220 221 227 230 235 233 230 240 251 256 258 262 263 266 271 277 285 290 293 296 297 298
188 181 182 167 160 169 158 173 185 144 89 81 90 90 87 89 81 75 92 85 84 118 131 130 144 145 140 126 106 122 165 195 193 170 114 97 64 44 60 80 81 97 131 158 166 175 184 192 198 201 206 209 207 204 204 207 210 214 220 229 232 233 239 240 237 242 246 250 251 248 251 257 260 260 264 266 266 269 272 277 281 287 293 295 296
198 190 190 173 169 183 178 192 183 154 152 134 114 98 90 88 82 86 94 92 102 119 131 131 145 150 136 122 111 108 149 156 163 159 106 87 52 32 54 72 69 87 93 109 132 152 176 185 195 200 202 205 211 212 207 209 215 218 221 230 238 243 246 247 246 251 253 257 260 261 262 264 265 264 264 266 268 271 273 277 281 285 289 292 293
204 197 203 185 173 179 179 191 180 160 178 177 155 114 104 91 80 103 115 119 119 115 124 130 141 143 127 121 114 92 132 141 137 136 97 72 45 42 67 76 76 84 78 76 95 117 158 177 184 191 197 199 203 209 211 213 218 222 223 229 237 243 247 247 248 252 257 264 266 266 269 268 268 268 266 267 269 272 274 276 278 281 284 286 288
209 199 204 197 185 182 175 177 176 172 178 182 195 189 145 111 86 95 130 165 135 112 119 131 141 139 119 116 121 106 124 132 124 124 85 58 55 63 76 84 86 84 77 77 86 99 130 161 170 176 187 191 194 199 203 207 212 221 227 228 234 240 245 249 251 258 262 266 267 266 270 272 272 274 272 272 274 274 275 276 279 281 283 285 287
212 203 201 203 200 195 184 182 185 176 176 195 205 195 170 134 110 88 128 169 136 124 128 133 143 144 126 124 144 140 132 121 119 109 55 51 72 73 83 89 91 83 76 77 71 77 108 131 151 162 175 181 185 191 191 195 197 209 225 225 227 235 243 249 253 257 260 263 265 265 268 271 274 275 276 277 277 278 278 279 280 282 285 286 287
213 205 200 207 211 203 193 195 198 179 174 205 210 196 184 141 120 109 147 176 151 143 139 132 140 147 148 159 170 160 152 140 125 113 121 157 113 98 101 98 102 87 68 62 49 47 102 113 127 138 146 158 169 182 187 191 192 203 222 223 219 225 232 244 249 248 253 260 264 267 268 269 273 274 276 278 280 281 280 280 280 282 285 286 287
212 208 202 208 216 211 203 207 206 192 194 216 208 197 193 154 135 139 160 179 158 144 139 133 140 150 153 161 160 153 156 155 147 166 192 150 119 136 137 109 112 92 60 49 37 28 134 125 115 125 125 128 137 148 160 167 165 165 171 184 195 205 215 227 239 242 249 262 267 269 266 264 268 272 278 283 288 290 287 287 287 289 291 291 292
211 211 206 207 217 219 213 213 205 200 213 210 196 193 196 186 185 178 162 169 150 143 143 139 157 173 146 144 161 161 157 158 166 197 188 174 166 158 165 151 124 92 59 52 45 40 117 144 120 134 133 130 138 143 146 152 145 131 135 150 165 178 189 198 216 228 236 257 270 273 270 271 282 292 304 314 318 321 318 315 314 315 316 314 311
211 212 211 208 215 223 220 212 201 201 208 202 193 191 194 195 195 184 164 160 149 149 149 144 165 174 142 135 163 168 164 166 176 189 186 184 184 180 183 172 134 92 74 64 55 59 87 114 115 146 147 142 149 154 152 153 152 136 128 136 143 151 159 166 181 188 196 225 255 283 303 321 336 344 347 348 347 348 353 352 351 351 350 351 349
212 212 213 209 213 223 223 213 207 210 204 196 195 193 197 199 190 179 169 161 152 155 154 149 159 165 155 152 156 155 164 177 180 187 195 176 171 190 188 166 141 105 114 82 54 59 76 79 73 98 131 147 160 174 173 172 166 147 127 131 131 140 150 155 157 148 145 141 113 60 30 20 11 9 7 8 9 10 15 15 16 18 17 17 15
214 214 214 211 211 221 225 218 214 218 210 203 200 198 202 199 189 178 176 166 153 159 162 159 161 169 177 174 162 162 173 184 180 186 210 190 168 186 182 171 172 169 189 192 54 37 43 41 41 63 86 138 177 205 193 188 179 155 146 143 139 139 131 122 118 110 105 93 78 65 49 39 29 24 21 19 19 20 19 20 20 21 23 25 24
216 215 216 214 212 217 222 217 214 215 209 203 200 207 211 205 198 189 188 178 156 159 166 166 168 176 185 181 179 194 196 192 183 179 210 200 177 182 185 186 185 186 208 214 158 336 345 345 350 27 29 55 116 136 165 176 166 158 153 145 143 136 118 105 99 89 84 76 65 57 49 43 37 32 27 25 23 21 18 18 18 17 18 18 17
215 213 214 215 213 214 216 214 212 210 203 200 201 211 214 205 199 190 193 188 163 158 161 168 182 185 189 184 178 199 201 187 181 167 181 193 187 189 192 198 197 204 212 203 218 272 297 305 308 353 356 356 55 91 106 134 141 144 138 134 135 131 122 111 103 89 79 69 60 54 48 45 42 38 36 34 31 30 28 25 23 19 16 13 9
213 212 213 215 214 211 214 214 210 207 201 201 204 208 209 203 200 194 195 194 176 165 164 172 186 188 190 180 154 170 184 174 176 170 156 162 178 190 202 213 215 232 226 211 223 249 253 252 272 320 337 338 5 92 112 123 130 132 127 126 128 125 124 119 110 97 78 64 57 53 52 51 48 46 46 45 45 44 39 35 29 22 16 12 7
214 214 214 216 215 211 213 215 210 206 203 202 199 201 206 202 201 201 200 200 187 178 180 181 185 194 198 188 162 158 175 179 182 184 163 155 165 185 204 217 221 233 230 222 230 244 246 243 271 320 335 337 345 109 140 140 134 134 127 128 129 125 122 119 113 97 75 59 56 56 57 56 53 52 53 52 48 41 35 30 23 17 9 4 358
217 217 217 217 216 211 212 217 213 207 207 206 201 202 209 208 207 206 202 199 191 189 196 194 193 199 197 192 182 168 176 193 192 189 178 166 167 183 195 201 212 218 219 235 241 242 246 249 283 324 322 325 340 38 118 129 145 151 149 146 139 135 130 122 115 92 70 53 46 47 47 48 50 52 53 49 43 34 28 22 15 10 5 359 353
219 218 219 219 217 213 211 216 218 211 210 209 205 207 209 211 215 212 206 202 193 194 203 205 205 202 182 192 195 183 182 193 191 190 193 182 176 184 194 200 209 209 202 224 243 245 244 247 283 311 293 299 322 340 350 349 192 179 179 182 170 162 155 139 132 100 54 24 23 25 29 34 36 37 35 28 23 18 12 6 0 356 354 352 350
222 219 220 221 220 216 211 214 218 215 213 209 207 211 210 212 218 217 215 212 202 198 201 204 211 210 184 190 200 198 194 192 187 191 199 194 191 192 195 208 223 225 209 214 235 241 238 240 264 288 282 285 295 307 329 334 297 249 254 224 210 202 207 237 255 279 298 314 331 345 360 11 16 15 9 3 359 357 353 348 346 343 342 344 345
224 223 222 221 221 219 212 212 216 215 213 210 209 212 212 213 220 222 223 221 211 204 199 200 214 221 207 194 201 210 205 194 187 191 198 200 204 203 197 212 229 228 220 222 225 227 230 236 252 272 280 281 282 289 308 321 320 306 287 241 224 276 313 305 295 288 287 290 297 308 325 338 345 344 345 347 344 342 341 338 338 336 334 336 337
222 223 222 221 221 220 215 213 216 217 215 214 213 214 215 216 220 224 229 228 222 218 205 199 215 228 228 207 200 205 201 194 187 186 195 200 208 207 203 217 224 216 216 224 224 224 230 235 245 263 276 275 278 283 291 302 311 316 305 255 246 290 308 306 299 291 286 283 285 288 297 306 312 318 325 332 334 334 334 332 331 329 328 329 329
221 222 222 223 223 220 218 215 217 218 218 219 216 216 219 221 223 226 231 233 233 233 218 203 211 223 230 220 198 195 198 196 191 188 195 207 217 212 206 214 223 216 217 222 224 228 236 243 246 253 260 261 266 270 277 289 299 309 306 276 264 275 286 292 291 287 284 282 282 282 285 288 291 298 305 315 323 327 328 327 325 324 323 323 322
224 225 225 226 226 223 221 218 217 217 217 220 218 216 220 222 225 229 233 234 235 239 232 217 212 217 226 221 195 186 193 193 193 196 201 211 224 225 213 208 209 213 219 222 225 232 241 248 245 242 246 253 259 263 270 285 293 300 298 283 276 277 278 282 282 280 278 277 278 277 277 278 279 284 290 299 310 318 321 320 319 319 318 319 320
225 227 228 228 228 228 226 222 220 219 218 219 218 217 218 222 225 229 233 234 235 241 242 236 232 221 223 221 201 184 187 187 190 203 213 217 226 235 227 217 210 210 216 220 227 234 240 241 234 231 239 249 255 259 264 274 284 291 290 283 281 280 277 279 278 274 271 270 271 272 272 273 273 277 282 288 297 307 312 313 312 312 313 315 316
223 224 227 230 230 230 231 228 225 222 221 221 220 218 219 222 227 230 233 235 237 242 246 245 247 238 224 220 211 192 187 189 197 214 223 222 227 235 235 229 220 215 217 221 230 239 243 239 229 227 235 242 246 251 257 264 272 280 284 281 277 276 276 276 273 270 267 264 263 265 267 268 270 274 278 282 289 298 304 305 305 305 306 309 310
225 223 224 228 230 231 233 233 231 227 224 223 222 220 221 223 227 231 234 236 238 242 247 248 248 249 235 224 216 203 193 193 201 213 220 221 228 234 235 232 223 221 224 230 239 246 248 241 226 225 233 237 241 247 253 260 266 273 281 280 275 274 273 271 269 267 263 259 259 262 263 264 268 272 276 280 285 291 297 298 299 300 301 302 304
228 226 224 225 227 229 231 234 235 233 231 229 225 223 224 225 226 229 232 235 238 242 246 250 250 251 248 236 224 212 203 200 201 207 214 220 228 233 236 235 228 225 227 231 241 246 245 243 230 228 235 239 245 251 253 257 262 270 277 276 272 271 269 267 266 264 259 257 260 263 263 263 265 270 275 281 286 289 292 294 295 296 297 298 299
230 229 228 226 225 225 228 231 233 235 236 235 232 228 227 229 228 229 231 233 237 241 245 250 251 251 251 248 235 220 210 208 208 208 212 219 226 230 234 238 238 235 230 229 237 243 242 241 234 233 238 242 247 249 251 255 260 267 272 270 268 269 267 265 264 263 261 258 260 263 265 263 261 266 274 281 285 287 289 291 292 293 294 295 295
230 229 230 230 228 226 227 230 232 234 236 237 238 234 230 231 232 232 233 232 235 240 243 247 249 250 252 252 247 232 216 214 215 215 215 220 227 230 232 236 240 241 236 233 237 241 240 236 230 231 236 241 244 245 248 253 259 267 271 271 272 273 270 266 263 262 260 258 260 262 261 259 260 267 277 282 285 287 287 289 290 290 291 292 292
232 231 230 230 230 229 228 230 233 236 238 238 239 239 236 234 234 235 235 235 235 237 240 244 246 249 252 253 253 247 231 222 220 220 221 223 229 233 236 238 240 241 240 238 239 241 240 235 230 231 234 237 240 243 247 253 259 267 271 274 278 277 272 266 261 260 258 258 259 255 253 258 265 273 280 282 284 286 287 286 287 286 287 287 288
232 233 232 230 230 231 231 232 233 236 240 240 240 241 241 239 238 238 239 239 238 238 240 243 244 247 251 253 253 253 249 239 230 225 226 228 232 236 240 242 243 244 243 242 241 243 243 238 232 234 238 239 241 244 248 254 261 264 267 272 276 277 274 268 264 262 258 255 255 253 256 262 269 275 279 280 283 285 286 285 283 282 281 282 284
232 233 234 231 230 231 232 233 234 236 239 241 241 241 242 242 242 242 242 242 242 242 242 244 245 246 249 253 255 254 253 249 241 233 229 230 235 239 242 244 245 246 245 244 244 245 245 242 235 234 237 239 243 247 248 253 259 262 265 269 271 272 272 271 269 265 257 253 254 257 260 263 265 268 273 278 281 283 286 285 282 280 281 283 285
232 233 233 233 231 231 233 235 237 238 239 241 242 242 243 243 244 244 244 244 245 244 244 244 246 248 249 252 255 255 252 249 246 241 236 235 237 239 243 245 247 247 247 246 246 245 246 246 242 237 236 236 240 244 247 250 255 259 261 264 267 268 268 267 266 264 259 256 254 253 255 258 262 266 272 276 278 281 284 283 282 282 286 291 291
232 232 233 234 234 234 234 236 238 240 241 242 243 244 244 244 245 246 246 246 246 247 246 245 245 247 250 252 253 253 252 250 248 247 244 243 242 242 244 247 249 249 248 248 248 246 246 247 246 242 239 238 239 240 243 247 250 253 257 259 263 265 264 262 261 262 262 260 255 251 252 257 263 267 270 273 276 281 282 282 283 287 292 295 294
231 232 233 235 237 238 238 238 239 240 241 242 243 244 244 245 246 246 247 247 247 247 248 248 247 247 250 253 253 253 253 253 252 251 248 247 247 246 247 248 250 250 250 251 250 249 248 248 247 245 243 242 241 242 244 246 247 250 253 256 258 260 259 257 256 257 260 261 258 254 254 257 261 263 267 271 276 279 280 282 286 290 293 292 293
232 233 234 236 239 240 240 241 241 242 241 241 242 242 242 244 245 246 247 248 248 248 248 249 249 248 248 250 253 254 254 255 255 254 252 250 249 249 249 248 248 249 251 252 251 251 252 250 249 249 246 243 242 242 242 241 241 245 251 255 259 261 259 256 254 255 257 260 259 255 253 255 257 260 265 269 272 275 279 283 287 289 289 287 290
235 235 234 236 239 240 241 242 242 242 241 241 241 241 242 243 244 246 246 247 248 249 249 249 249 249 248 249 251 254 256 257 257 257 256 255 253 252 251 250 248 248 249 250 250 251 251 251 252 251 248 244 241 240 240 240 243 249 254 256 258 261 260 256 255 254 254 256 257 254 254 256 259 261 263 268 273 277 280 283 285 287 285 284 289
235 236 235 235 236 238 240 241 241 241 241 241 242 242 242 243 244 245 245 247 248 249 249 249 248 249 249 250 252 254 256 258 258 258 258 257 257 256 255 254 252 250 250 249 250 250 250 251 253 252 250 249 246 242 243 247 250 252 251 251 254 257 256 254 254 253 251 252 253 253 253 256 258 260 263 268 273 276 277 278 281 283 283 283 287
235 236 237 236 236 237 239 240 241 241 242 243 243 243 243 244 244 244 245 246 248 249 250 250 249 250 250 251 252 253 254 256 257 258 258 258 258 257 256 255 254 253 251 251 251 252 251 251 253 253 253 255 254 249 247 248 249 249 249 249 251 250 248 249 251 251 248 246 247 251 253 253 254 259 265 269 271 273 273 274 276 280 281 281 285
233 236 238 238 237 236 237 239 240 242 244 245 245 244 244 244 244 244 245 246 247 249 250 252 252 252 251 251 252 253 254 255 256 258 258 258 258 258 257 256 255 254 252 252 253 254 254 254 254 255 255 258 259 255 250 248 248 249 248 246 246 247 247 248 249 250 250 247 246 251 252 251 252 258 263 267 268 269 270 271 273 277 279 278 281
233 235 238 239 239 237 237 238 240 243 246 247 246 246 246 246 245 244 244 246 247 249 251 253 254 254 253 252 252 253 255 256 257 257 257 257 257 257 256 256 256 255 253 253 254 256 257 257 257 258 259 259 259 259 256 252 250 249 246 244 244 244 244 245 247 250 251 248 246 248 251 249 249 254 259 262 263 264 267 270 271 271 272 273 278
231 234 236 238 239 239 238 239 241 244 247 249 249 248 248 247 246 245 245 246 247 249 251 253 255 255 255 254 254 255 256 257 257 257 256 256 256 255 254 253 255 256 255 254 253 254 255 255 256 259 261 260 261 263 261 255 251 249 247 246 246 246 247 251 255 254 251 249 247 247 249 250 249 253 257 258 258 261 267 269 266 263 264 269 278
232 233 235 237 239 241 241 241 241 243 246 249 250 250 250 249 248 247 246 247 247 249 251 253 254 255 256 256 256 257 258 259 259 258 257 257 257 256 255 254 255 256 257 256 257 256 254 255 257 259 262 262 262 263 261 255 251 251 251 252 253 255 255 254 254 252 249 248 246 244 248 251 251 252 254 253 253 260 267 268 265 261 261 268 276
232 233 235 237 239 241 242 243 243 244 245 246 248 250 251 251 250 248 248 248 248 249 250 252 253 254 254 255 256 257 258 260 259 259 258 257 257 257 256 257 257 256 258 260 261 260 258 258 260 261 261 262 262 262 260 255 250 248 248 248 249 250 250 248 248 247 245 244 244 244 248 252 251 248 247 245 248 258 266 268 266 263 262 266 269
230 232 234 237 238 240 241 242 244 246 246 246 246 247 249 249 249 249 249 250 250 250 251 252 253 254 254 254 255 256 257 259 259 258 257 255 255 256 256 257 257 256 259 260 261 261 260 260 261 261 259 259 259 258 257 254 249 243 239 238 239 240 242 242 242 243 243 244 243 242 246 251 249 244 241 242 248 258 265 266 265 264 261 261 261
232 233 234 236 237 238 240 241 243 246 246 247 247 247 248 248 248 249 249 251 253 254 255 254 254 256 256 255 255 255 256 258 258 257 256 254 254 255 255 256 256 256 258 259 258 259 260 259 258 258 256 255 255 254 254 251 247 240 235 235 237 238 238 239 240 241 243 246 245 241 243 247 244 238 236 237 243 252 259 263 264 264 259 256 258
234 234 234 235 236 237 239 241 243 245 246 247 248 248 248 248 249 251 250 251 253 254 256 257 258 259 259 258 257 256 257 257 257 257 256 255 255 255 255 255 254 256 260 259 258 260 260 258 257 255 254 254 252 250 250 248 245 241 238 238 238 238 239 241 241 238 238 243 244 241 240 240 237 232 231 231 236 245 253 257 260 263 260 257 259
Height
1585 1585 1586 1587 1588 1588 1589 1589 1590 1590 1591 1591 1592 1592 1592 1592 1593 1593 1593 1594 1594 1594 1594 1594 1595 1595 1596 1596 1597 1598 1598 1598 1599 1599 1599 1599 1599 1599 1599 1599 1599 1599 1599 1599 1600 1600 1601 1601 1602 1602 1602 1603 1603 1603 1604 1604 1605 1605 1605 1606 1606 1607 1607 1608 1608 1608 1608 1609 1609 1609 1609 1608 1608 1608 1608 1608 1608 1608 1608 1608 1608 1607 1607 1607 1606
1585 1585 1586 1587 1588 1588 1589 1589 1590 1590 1591 1591 1592 1592 1592 1593 1593 1593 1593 1594 1594 1594 1595 1594 1595 1595 1597 1597 1597 1598 1598 1599 1599 1600 1599 1599 1599 1599 1599 1599 1600 1600 1599 1599 1600 1600 1601 1601 1602 1602 1602 1603 1603 1603 1604 1604 1605 1605 1605 1606 1606 1606 1607 1607 1608 1608 1608 1608 1608 1608 1608 1608 1608 1608 1608 1608 1608 1608 1608 1608 1607 1607 1607 1607 1606
1584 1585 1587 1588 1588 1588 1589 1589 1590 1590 1591 1591 1592 1592 1593 1593 1593 1593 1594 1594 1594 1594 1595 1595 1595 1595 1596 1598 1598 1598 1598 1599 1599 1599 1600 1600 1600 1600 1600 1600 1600 1600 1600 1600 1600 1600 1601 1601 1602 1602 1602 1603 1603 1603 1604 1604 1605 1605 1605 1605 1606 1606 1606 1607 1607 1607 1607 1607 1608 1608 1608 1608 1608 1608 1608 1607 1607 1607 1607 1607 1607 1607 1606 1606 1606
1584 1586 1587 1588 1588 1588 1588 1589 1590 1591 1591 1591 1592 1592 1593 1593 1593 1593 1594 1594 1594 1594 1595 1595 1595 1595 1596 1597 1598 1598 1598 1599 1599 1599 1600 1600 1600 1600 1600 1600 1600 1601 1600 1600 1600 1601 1601 1601 1602 1602 1602 1603 1603 1603 1604 1604 1604 1605 1605 1605 1605 1606 1606 1606 1606 1607 1607 1607 1607 1607 1607 1607 1607 1607 1607 1607 1607 1607 1607 1606 1606 1606 1606 1606 1605
1584 1586 1587 1587 1588 1588 1588 1589 1590 1590 1591 1591 1592 1593 1593 1593 1593 1593 1594 1594 1594 1594 1595 1595 1595 1596 1596 1597 1598 1598 1598 1599 1599 1599 1600 1600 1600 1600 1600 1600 1600 1601 1601 1600 1600 1601 1601 1601 1602 1602 1602 1603 1603 1603 1604 1604 1604 1604 1605 1605 1605 1605 1605 1606 1606 1606 1606 1606 1606 1606 1606 1606 1606 1606 1606 1606 1606 1606 1606 1606 1606 1606 1606 1605 1605
1585 1586 1586 1587 1587 1588 1588 1589 1589 1590 1591 1591 1592 1592 1593 1593 1593 1593 1594 1594 1594 1594 1595 1595 1596 1596 1597 1597 1598 1599 1598 1598 1599 1600 1600 1600 1600 1600 1600 1600 1600 1601 1601 1601 1600 1600 1601 1601 1602 1602 1602 1603 1603 1604 1604 1604 1604 1604 1604 1605 1605 1605 1605 1605 1605 1605 1606 1606 1606 1606 1606 1606 1606 1606 1606 1606 1606 1606 1605 1605 1605 1605 1605 1605 1605
1584 1585 1586 1587 1587 1588 1589 1589 1589 1590 1590 1591 1591 1592 1592 1593 1593 1593 1594 1594 1595 1595 1595 1596 1596 1597 1598 1598 1599 1599 1598 1598 1599 1600 1600 1600 1601 1601 1600 1600 1601 1601 1601 1601 1601 1600 1601 1601 1601 1602 1602 1603 1603 1604 1604 1604 1604 1604 1604 1604 1604 1604 1604 1604 1605 1605 1605 1605 1605 1605 1605 1605 1605 1605 1605 1605 1605 1605 1605 1604 1604 1604 1604 1604 1604
1584 1585 1585 1586 1587 1587 1588 1589 1589 1590 1591 1591 1591 1592 1592 1593 1593 1593 1594 1594 1595 1595 1595 1596 1597 1598 1599 1599 1599 1599 1598 1598 1600 1600 1600 1601 1601 1601 1601 1601 1601 1602 1601 1601 1601 1600 1600 1601 1601 1601 1602 1602 1603 1603 1604 1604 1604 1604 1604 1604 1604 1604 1604 1604 1604 1604 1604 1605 1605 1605 1605 1605 1604 1604 1604 1604 1604 1604 1604 1603 1603 1603 1603 1602 1602
1583 1584 1585 1586 1587 1587 1588 1589 1589 1590 1590 1591 1591 1592 1592 1593 1593 1593 1594 1594 1594 1595 1595 1596 1597 1598 1598 1599 1600 1600 1598 1598 1600 1600 1601 1601 1602 1602 1601 1602 1602 1602 1602 1601 1601 1601 1600 1600 1601 1601 1601 1602 1602 1602 1603 1603 1603 1603 1603 1603 1603 1603 1603 1604 1604 1604 1604 1604 1604 1604 1604 1604 1604 1604 1604 1604 1603 1603 1603 1603 1602 1602 1602 1602 1601
1582 1583 1584 1585 1586 1587 1587 1588 1589 1590 1590 1590 1591 1591 1592 1592 1593 1593 1594 1594 1594 1595 1596 1596 1597 1598 1598 1599 1600 1600 1600 1599 1600 1601 1601 1601 1602 1602 1602 1602 1602 1602 1602 1602 1601 1601 1601 1600 1600 1600 1601 1601 1602 1602 1602 1603 1603 1603 1603 1603 1603 1603 1603 1603 1603 1603 1603 1603 1603 1603 1603 1603 1603 1603 1603 1603 1602 1602 1602 1602 1601 1601 1601 1601 1600
1581 1583 1584 1585 1585 1586 1587 1587 1588 1589 1590 1590 1591 1591 1591 1592 1593 1593 1594 1594 1595 1595 1596 1597 1598 1598 1598 1599 1600 1601 1601 1600 1600 1600 1601 1601 1602 1602 1602 1602 1602 1602 1603 1602 1602 1601 1601 1601 1600 1600 1601 1601 1601 1602 1602 1602 1602 1602 1602 1602 1603 1603 1603 1603 1603 1603 1603 1602 1602 1602 1602 1602 1602 1602 1602 1602 1601 1601 1601 1601 1600 1600 1600 1599 1599
1581 1582 1583 1584 1585 1586 1587 1587 1588 1589 1589 1590 1591 1591 1591 1592 1592 1593 1594 1594 1595 1595 1596 1597 1598 1598 1598 1599 1600 1600 1601 1601 1601 1601 1601 1601 1601 1602 1602 1602 1602 1602 1602 1602 1602 1602 1601 1601 1601 1601 1601 1601 1601 1601 1601 1601 1601 1602 1602 1602 1602 1602 1602 1602 1602 1602 1602 1602 1602 1602 1602 1602 1601 1601 1601 1601 1601 1600 1600 1600 1600 1599 1599 1599 1598
1580 1581 1583 1584 1584 1585 1586 1587 1588 1588 1589 1590 1590 1591 1591 1592 1592 1593 1594 1594 1595 1595 1596 1597 1597 1598 1598 1599 1600 1600 1601 1601 1602 1602 1601 1601 1601 1601 1601 1601 1602 1602 1602 1602 1602 1602 1602 1601 1601 1601 1601 1601 1601 1601 1601 1601 1601 1601 1601 1601 1602 1602 1602 1602 1602 1602 1602 1602 1602 1602 1601 1601 1601 1601 1601 1600 1600 1600 1600 1599 1599 1599 1599 1598 1598
1579 1580 1582 1583 1584 1585 1585 1587 1587 1588 1589 1589 1590 1590 1591 1592 1592 1593 1593 1594 1595 1595 1596 1596 1597 1598 1598 1599 1599 1600 1601 1601 1601 1602 1602 1601 1601 1601 1601 1601 1601 1601 1601 1602 1602 1602 1602 1602 1601 1601 1601 1601 1601 1601 1601 1601 1601 1601 1601 1601 1601 1602 1602 1602 1602 1602 1602 1602 1602 1602 1601 1601 1601 1601 1600 1600 1600 1600 1599 1599 1599 1599 1598 1598 1598
1578 1579 1581 1582 1583 1584 1585 1586 1587 1587 1588 1588 1589 1590 1591 1591 1592 1592 1593 1594 1594 1595 1595 1596 1597 1597 1598 1598 1599 1599 1600 1600 1601 1601 1601 1602 1601 1601 1600 1601 1601 1601 1601 1601 1601 1602 1602 1601 1601 1601 1601 1601 1601 1601 1601 1601 1601 1601 1601 1601 1601 1601 1601 1601 1602 1602 1602 1602 1602 1602 1601 1601 1601 1601 1601 1600 1600 1600 1599 1599 1599 1599 1598 1598 1597
1577 1578 1579 1581 1582 1583 1584 1585 1586 1586 1587 1588 1588 1589 1590 1590 1591 1591 1592 1593 1594 1594 1595 1595 1596 1597 1597 1598 1599 1599 1599 1600 1600 1601 1601 1602 1602 1601 1601 1601 1600 1600 1600 1600 1601 1601 1600 1600 1600 1600 1600 1601 1600 1600 1600 1601 1601 1601 1601 1601 1601 1601 1601 1601 1601 1601 1602 1602 1602 1602 1601 1601 1601 1601 1601 1600 1600 1600 1599 1599 1599 1598 1598 1598 1597
1576 1577 1578 1579 1581 1582 1583 1584 1585 1586 1586 1587 1588 1588 1589 1589 1590 1591 1591 1592 1593 1594 1594 1595 1596 1596 1597 1597 1598 1598 1598 1599 1600 1600 1601 1601 1602 1602 1601 1600 1600 1600 1600 1600 1600 1600 1600 1600 1600 1600 1600 1600 1600 1600 1600 1601 1601 1601 1601 1601 1601 1601 1600 1600 1601 1601 1601 1602 1601 1601 1601 1601 1601 1601 1601 1600 1600 1600 1599 1599 1599 1598 1598 1597 1597
1574 1576 1577 1578 1579 1580 1582 1583 1583 1584 1585 1586 1587 1587 1588 1589 1589 1590 1591 1591 1592 1593 1594 1594 1595 1595 1596 1597 1597 1597 1597 1598 1599 1600 1600 1601 1602 1602 1601 1601 1601 1600 1600 1600 1600 1600 1600 1600 1600 1600 1601 1601 1601 1601 1601 1601 1601 1601 1601 1601 1601 1601 1601 1601 1601 1601 1601 1601 1601 1601 1601 1601 1601 1601 1601 1600 1600 1600 1599 1599 1598 1598 1597 1597 1596
1573 1574 1575 1576 1578 1579 1580 1581 1582 1583 1584 1585 1585 1586 1587 1588 1588 1589 1590 1591 1591 1592 1593 1594 1594 1595 1595 1596 1596 1596 1596 1597 1598 1599 1599 1600 1601 1601 1601 1601 1601 1601 1600 1601 1601 1601 1601 1601 1600 1600 1601 1601 1601 1601 1601 1601 1601 1601 1601 1601 1601 1601 1601 1601 1601 1602 1602 1602 1602 1601 1601 1601 1601 1601 1600 1600 1600 1600 1599 1599 1598 1598 1597 1597 1596
1571 1572 1574 1575 1576 1577 1578 1579 1581 1582 1583 1584 1585 1585 1586 1587 1588 1589 1589 1590 1591 1591 1592 1593 1593 1594 1594 1595 1595 1596 1596 1596 1597 1598 1598 1599 1600 1601 1601 1602 1602 1601 1601 1601 1601 1601 1600 1601 1601 1600 1600 1601 1601 1601 1601 1601 1601 1601 1601 1601 1601 1602 1602 1602 1602 1602 1602 1602 1602 1602 1601 1601 1601 1601 1600 1600 1600 1600 1599 1599 1598 1598 1597 1596 1596
1569 1570 1572 1573 1574 1576 1577 1578 1579 1580 1581 1583 1583 1584 1585 1586 1587 1587 1588 1589 1590 1590 1591 1591 1592 1593 1593 1594 1594 1595 1596 1596 1597 1597 1598 1599 1599 1600 1600 1601 1602 1602 1601 1600 1600 1600 1600 1600 1601 1600 1600 1600 1601 1602 1602 1602 1601 1601 1602 1601 1601 1602 1602 1602 1602 1602 1602 1602 1602 1602 1601 1601 1601 1601 1600 1600 1600 1599 1599 1599 1598 1597 1597 1596 1595
1567 1568 1570 1571 1572 1574 1575 1576 1577 1578 1580 1581 1582 1583 1584 1585 1585 1586 1587 1588 1589 1589 1590 1590 1591 1591 1592 1592 1593 1594 1595 1595 1596 1596 1597 1598 1598 1599 1599 1600 1600 1601 1601 1600 1600 1600 1600 1600 1600 1600 1600 1600 1601 1601 1601 1601 1601 1601 1602 1601 1601 1602 1602 1602 1602 1602 1602 1602 1602 1602 1601 1601 1601 1600 1600 1600 1599 1599 1599 1598 1598 1597 1596 1596 1595
1565 1567 1568 1569 1570 1572 1573 1575 1576 1577 1578 1580 1581 1582 1583 1584 1584 1585 1586 1587 1588 1588 1589 1589 1589 1590 1591 1591 1592 1593 1594 1594 1595 1596 1596 1597 1598 1598 1599 1599 1599 1600 1600 1600 1600 1599 1600 1600 1600 1601 1600 1600 1600 1600 1600 1601 1601 1601 1601 1601 1601 1601 1601 1601 1601 1601 1601 1601 1601 1601 1601 1601 1600 1600 1600 1599 1599 1598 1598 1598 1597 1596 1596 1595 1595
1563 1565 1566 1567 1568 1570 1571 1573 1574 1575 1577 1578 1579 1580 1582 1582 1583 1584 1585 1586 1587 1587 1588 1588 1588 1589 1590 1590 1591 1592 1593 1594 1594 1595 1596 1596 1597 1598 1598 1599 1599 1599 1600 1600 1599 1599 1600 1600 1600 1600 1600 1599 1599 1599 1600 1600 1601 1601 1601 1600 1600 1600 1601 1601 1601 1601 1600 1600 1600 1600 1600 1600 1600 1600 1599 1599 1598 1598 1598 1597 1596 1596 1595 1595 1594
1561 1562 1564 1565 1566 1568 1569 1571 1572 1574 1575 1576 1578 1579 1580 1581 1582 1582 1583 1584 1585 1586 1587 1587 1588 1588 1589 1589 1590 1590 1591 1592 1593 1594 1595 1596 1596 1597 1598 1598 1598 1598 1599 1599 1598 1599 1599 1600 1599 1599 1599 1598 1598 1599 1599 1599 1600 1600 1600 1599 1600 1599 1600 1600 1600 1600 1600 1600 1599 1599 1599 1599 1599 1599 1598 1598 1598 1597 1597 1596 1596 1595 1595 1594 1594
1558 1560 1562 1563 1565 1566 1568 1569 1571 1572 1574 1575 1576 1577 1578 1579 1580 1581 1582 1582 1583 1584 1586 1586 1587 1587 1587 1588 1589 1589 1590 1591 1592 1593 1594 1594 1595 1596 1597 1597 1597 1597 1598 1598 1598 1598 1598 1598 1598 1598 1598 1598 1598 1598 1598 1598 1599 1599 1599 1599 1599 1598 1598 1599 1599 1599 1599 1599 1599 1598 1598 1598 1598 1598 1598 1597 1597 1596 1596 1595 1595 1594 1594 1593 1593
1556 1558 1560 1562 1563 1564 1566 1568 1569 1571 1572 1573 1575 1576 1577 1577 1578 1579 1580 1581 1582 1583 1584 1585 1586 1586 1586 1587 1588 1588 1589 1591 1591 1592 1593 1593 1594 1595 1596 1596 1596 1596 1597 1597 1597 1596 1596 1597 1597 1597 1597 1597 1597 1597 1597 1597 1598 1598 1598 1598 1598 1598 1597 1598 1598 1598 1598 1598 1598 1597 1597 1597 1597 1597 1597 1596 1596 1595 1595 1594 1594 1593 1593 1592 1592
1554 1556 1558 1560 1561 1563 1564 1566 1567 1569 1570 1572 1573 1574 1575 1576 1576 1577 1578 1580 1580 1581 1582 1583 1584 1585 1585 1586 1587 1587 1588 1589 1590 1592 1592 1592 1593 1594 1594 1595 1595 1595 1595 1595 1595 1595 1595 1595 1595 1596 1595 1595 1595 1595 1596 1596 1596 1596 1596 1597 1597 1596 1596 1596 1596 1596 1596 1596 1596 1596 1596 1596 1596 1595 1595 1595 1595 1594 1594 1593 1593 1592 1592 1591 1590
1553 1554 1556 1557 1559 1561 1562 1564 1565 1567 1568 1570 1571 1573 1574 1575 1575 1576 1576 1578 1579 1579 1580 1581 1582 1583 1584 1585 1586 1586 1587 1588 1589 1590 1591 1592 1592 1592 1593 1593 1593 1593 1593 1593 1593 1593 1593 1594 1594 1594 1594 1594 1594 1594 1595 1595 1595 1595 1595 1595 1595 1595 1595 1595 1595 1595 1595 1595 1595 1595 1594 1594 1594 1594 1594 1593 1593 1593 1593 1592 1592 1591 1591 1590 1589
1550 1552 1554 1555 1557 1559 1560 1561 1563 1565 1566 1567 1569 1570 1572 1573 1574 1574 1575 1576 1577 1577 1578 1579 1580 1582 1583 1583 1584 1584 1585 1586 1587 1588 1589 1590 1590 1590 1591 1591 1592 1592 1592 1592 1591 1591 1592 1592 1592 1592 1592 1592 1592 1593 1593 1593 1593 1593 1593 1593 1593 1593 1593 1593 1593 1593 1593 1593 1593 1593 1593 1593 1593 1592 1592 1592 1592 1591 1591 1591 1590 1590 1589 1589 1588
1548 1550 1552 1553 1555 1556 1557 1559 1560 1562 1564 1565 1567 1568 1570 1571 1572 1573 1573 1574 1575 1575 1576 1577 1578 1579 1580 1582 1582 1583 1584 1584 1585 1586 1587 1588 1588 1588 1589 1589 1590 1590 1590 1590 1590 1590 1590 1590 1590 1590 1590 1591 1591 1591 1591 1592 1592 1592 1591 1591 1591 1591 1591 1591 1591 1591 1591 1592 1592 1591 1591 1591 1591 1591 1591 1591 1590 1590 1589 1589 1588 1588 1588 1587 1586
1545 1547 1549 1551 1552 1554 1555 1557 1558 1560 1561 1563 1564 1566 1567 1568 1569 1571 1571 1572 1573 1573 1574 1575 1576 1577 1578 1579 1580 1581 1582 1582 1583 1585 1585 1586 1586 1587 1587 1587 1588 1588 1589 1588 1588 1587 1588 1588 1589 1589 1589 1589 1589 1589 1590 1590 1590 1590 1590 1590 1589 1589 1589 1589 1589 1589 1589 1589 1590 1590 1589 1589 1589 1589 1589 1589 1588 1588 1587 1587 1586 1586 1586 1585 1584
1542 1544 1546 1547 1549 1551 1552 1554 1555 1557 1558 1560 1561 1563 1564 1565 1567 1568 1569 1570 1571 1571 1572 1573 1574 1575 1575 1576 1578 1579 1580 1580 1581 1582 1583 1583 1584 1585 1585 1585 1585 1586 1586 1586 1586 1586 1586 1586 1586 1587 1587 1587 1587 1587 1588 1588 1588 1588 1587 1587 1587 1587 1586 1586 1587 1587 1587 1587 1587 1587 1588 1588 1587 1587 1587 1587 1586 1586 1585 1585 1584 1584 1583 1583 1582
1539 1541 1543 1544 1546 1548 1550 1551 1552 1554 1555 1557 1558 1560 1561 1562 1564 1565 1566 1567 1568 1569 1570 1570 1571 1572 1573 1574 1575 1577 1578 1578 1579 1580 1580 1581 1581 1582 1582 1583 1583 1583 1584 1584 1584 1584 1584 1585 1584 1584 1584 1584 1584 1585 1585 1585 1585 1585 1585 1585 1585 1585 1584 1584 1584 1584 1585 1585 1585 1585 1585 1585 1585 1585 1585 1585 1584 1584 1583 1582 1582 1581 1581 1581 1580
1536 1538 1540 1542 1543 1545 1547 1548 1550 1551 1552 1554 1555 1556 1557 1559 1560 1561 1563 1564 1565 1566 1567 1567 1568 1569 1570 1571 1572 1574 1575 1576 1576 1577 1577 1578 1578 1579 1579 1580 1581 1581 1581 1582 1582 1581 1582 1583 1583 1582 1582 1582 1582 1582 1582 1582 1582 1582 1582 1582 1582 1582 1582 1582 1582 1582 1582 1582 1583 1583 1583 1583 1583 1583 1583 1583 1583 1582 1581 1580 1580 1579 1578 1578 1578
1533 1535 1537 1539 1541 1542 1544 1545 1546 1548 1549 1550 1552 1553 1554 1555 1556 1558 1559 1560 1562 1563 1564 1565 1566 1566 1567 1568 1569 1570 1571 1572 1572 1573 1574 1575 1575 1575 1576 1577 1577 1578 1579 1579 1579 1579 1580 1580 1581 1581 1580 1580 1579 1580 1580 1580 1580 1580 1580 1580 1580 1580 1580 1580 1580 1580 1580 1580 1580 1580 1580 1580 1580 1580 1580 1580 1580 1580 1579 1578 1578 1577 1576 1575 1575
1530 1532 1534 1536 1538 1539 1540 1541 1542 1544 1545 1546 1548 1549 1550 1551 1553 1554 1556 1557 1558 1559 1561 1562 1563 1563 1564 1564 1565 1566 1567 1567 1568 1569 1570 1571 1571 1572 1573 1573 1574 1575 1576 1576 1577 1577 1577 1577 1578 1579 1579 1578 1578 1578 1578 1578 1578 1578 1578 1578 1577 1577 1577 1578 1578 1577 1577 1577 1577 1577 1577 1578 1578 1577 1577 1577 1577 1577 1576 1576 1575 1574 1574 1573 1572
1526 1528 1530 1532 1533 1535 1536 1537 1539 1540 1541 1542 1543 1545 1546 1548 1549 1551 1552 1553 1554 1555 1557 1558 1559 1560 1560 1561 1562 1563 1563 1563 1564 1565 1566 1567 1568 1568 1568 1569 1571 1572 1572 1573 1574 1574 1574 1574 1575 1576 1576 1576 1576 1576 1576 1576 1576 1576 1575 1575 1575 1575 1575 1575 1575 1575 1575 1575 1575 1575 1575 1575 1575 1575 1575 1574 1574 1574 1573 1573 1572 1572 1571 1570 1569
1523 1525 1526 1528 1529 1531 1532 1534 1535 1536 1537 1538 1539 1541 1543 1544 1546 1547 1548 1549 1550 1551 1552 1554 1555 1556 1556 1557 1558 1558 1559 1559 1560 1561 1562 1563 1564 1564 1565 1566 1567 1568 1569 1570 1570 1571 1571 1571 1572 1572 1572 1573 1573 1573 1573 1574 1574 1573 1573 1573 1572 1572 1572 1572 1572 1572 1573 1573 1572 1572 1572 1572 1572 1572 1572 1572 1571 1571 1571 1571 1570 1570 1569 1568 1567
1519 1521 1522 1524 1525 1527 1528 1530 1531 1532 1533 1534 1536 1537 1539 1541 1542 1543 1544 1545 1546 1547 1548 1549 1550 1551 1552 1552 1553 1554 1554 1555 1556 1557 1558 1559 1560 1561 1562 1563 1564 1564 1565 1566 1567 1567 1567 1567 1567 1568 1569 1570 1570 1570 1570 1571 1570 1569 1569 1569 1569 1569 1569 1569 1569 1570 1570 1570 1570 1570 1570 1570 1570 1570 1569 1569 1569 1568 1568 1568 1568 1567 1567 1566 1565
1515 1517 1518 1520 1521 1523 1524 1525 1527 1528 1529 1530 1531 1533 1535 1536 1538 1538 1540 1541 1542 1543 1544 1544 1545 1546 1547 1547 1548 1549 1549 1550 1552 1553 1554 1556 1557 1557 1559 1560 1560 1561 1561 1562 1562 1563 1563 1563 1563 1564 1565 1565 1565 1566 1566 1565 1565 1565 1566 1567 1566 1566 1567 1566 1566 1567 1567 1567 1567 1567 1567 1567 1567 1567 1567 1567 1566 1566 1566 1566 1566 1565 1565 1564 1563
1511 1513 1515 1516 1517 1518 1520 1521 1523 1524 1525 1526 1527 1529 1530 1532 1534 1535 1536 1536 1537 1538 1539 1540 1541 1541 1542 1542 1543 1544 1545 1547 1548 1550 1551 1552 1553 1554 1555 1556 1557 1557 1557 1558 1558 1558 1559 1558 1558 1559 1559 1559 1560 1561 1561 1561 1561 1563 1563 1563 1563 1564 1564 1563 1563 1563 1564 1564 1564 1564 1564 1564 1564 1564 1564 1564 1564 1563 1563 1563 1563 1563 1562 1562 1561
1507 1509 1511 1512 1513 1514 1516 1517 1518 1519 1520 1521 1523 1525 1527 1528 1530 1531 1532 1533 1533 1534 1535 1535 1536 1537 1537 1538 1539 1540 1541 1543 1544 1546 1547 1548 1549 1550 1552 1553 1553 1554 1553 1554 1554 1554 1554 1554 1554 1554 1554 1553 1554 1556 1557 1558 1558 1559 1559 1559 1560 1560 1560 1560 1559 1559 1560 1561 1561 1560 1561 1561 1561 1560 1560 1560 1560 1560 1560 1560 1560 1559 1559 1559 1559
1504 1505 1507 1508 1509 1511 1512 1513 1514 1515 1515 1517 1519 1521 1523 1524 1527 1528 1528 1529 1529 1530 1531 1531 1532 1533 1533 1534 1535 1536 1537 1538 1540 1541 1543 1544 1545 1547 1548 1549 1549 1549 1549 1549 1550 1550 1549 1549 1549 1549 1548 1548 1549 1551 1552 1554 1554 1554 1555 1555 1555 1555 1556 1556 1555 1555 1556 1557 1558 1557 1557 1558 1558 1557 1557 1557 1557 1557 1556 1556 1557 1556 1556 1556 1556
1500 1501 1502 1504 1505 1507 1508 1509 1510 1510 1511 1513 1515 1517 1518 1520 1522 1524 1525 1525 1525 1526 1527 1527 1528 1529 1529 1531 1532 1533 1534 1535 1536 1537 1539 1541 1543 1544 1546 1546 1545 1545 1546 1546 1546 1546 1546 1545 1545 1544 1544 1545 1545 1545 1547 1549 1550 1550 1550 1550 1550 1551 1551 1551 1551 1552 1553 1554 1554 1554 1554 1555 1555 1554 1554 1554 1554 1553 1553 1553 1554 1554 1553 1553 1553
1496 1497 1498 1500 1502 1503 1504 1505 1506 1506 1507 1508 1510 1512 1514 1516 1518 1520 1521 1522 1522 1523 1523 1524 1524 1525 1526 1528 1529 1529 1530 1531 1531 1533 1534 1536 1538 1540 1541 1541 1540 1541 1541 1542 1542 1542 1542 1541 1540 1539 1540 1541 1541 1541 1543 1546 1546 1545 1545 1545 1546 1546 1547 1547 1548 1549 1551 1551 1551 1551 1551 1552 1552 1551 1550 1551 1550 1550 1550 1550 1551 1551 1551 1550 1550
1491 1493 1495 1496 1498 1499 1500 1501 1502 1502 1503 1504 1506 1508 1510 1512 1515 1516 1518 1519 1519 1520 1520 1521 1521 1522 1524 1525 1525 1526 1527 1527 1527 1529 1531 1532 1534 1534 1534 1534 1534 1535 1535 1535 1535 1535 1536 1536 1535 1535 1536 1537 1537 1537 1539 1541 1541 1542 1542 1543 1543 1544 1544 1545 1546 1546 1547 1547 1548 1548 1548 1549 1550 1548 1548 1548 1547 1547 1547 1547 1548 1548 1548 1548 1547
1488 1490 1491 1492 1494 1495 1497 1498 1499 1498 1499 1501 1502 1504 1506 1509 1511 1514 1515 1516 1516 1517 1517 1518 1518 1519 1521 1522 1522 1522 1523 1523 1524 1525 1527 1529 1529 1528 1528 1528 1528 1529 1528 1528 1529 1529 1529 1530 1529 1529 1530 1531 1532 1533 1534 1536 1537 1539 1540 1541 1541 1542 1542 1542 1542 1542 1543 1543 1544 1544 1544 1545 1546 1546 1545 1546 1545 1544 1544 1544 1544 1545 1545 1545 1544
1484 1486 1487 1488 1490 1491 1493 1494 1495 1495 1496 1498 1499 1500 1503 1506 1509 1511 1512 1513 1513 1513 1514 1515 1516 1517 1517 1518 1518 1519 1519 1519 1521 1522 1524 1525 1524 1523 1523 1523 1523 1523 1521 1521 1524 1524 1524 1524 1524 1524 1525 1526 1527 1527 1528 1530 1531 1534 1536 1535 1535 1536 1537 1537 1537 1537 1538 1539 1539 1541 1542 1542 1543 1543 1543 1543 1542 1542 1542 1542 1542 1543 1543 1543 1542
1480 1482 1484 1485 1487 1488 1489 1490 1491 1492 1493 1495 1497 1498 1500 1503 1505 1507 1509 1510 1510 1510 1511 1512 1513 1513 1513 1513 1514 1514 1514 1516 1518 1519 1520 1521 1520 1519 1519 1519 1519 1516 1514 1517 1520 1519 1519 1519 1519 1520 1520 1521 1521 1522 1523 1524 1526 1528 1528 1528 1529 1530 1531 1530 1530 1532 1534 1534 1535 1537 1538 1538 1539 1540 1541 1541 1540 1540 1541 1541 1541 1541 1541 1540 1540
1478 1480 1482 1483 1484 1485 1486 1487 1488 1489 1491 1493 1495 1496 1498 1500 1502 1504 1506 1506 1505 1506 1508 1509 1509 1509 1508 1509 1509 1510 1510 1512 1514 1515 1516 1517 1516 1515 1516 1516 1512 1508 1509 1513 1515 1514 1513 1513 1513 1514 1514 1514 1516 1517 1517 1519 1520 1521 1521 1522 1523 1524 1523 1523 1525 1527 1528 1527 1529 1532 1533 1533 1535 1536 1537 1537 1537 1537 1539 1539 1539 1539 1539 1538 1538